timestamp,wind_dir_avg,wind_spd_max_dir,wind_spd_avg,wind_spd_gust,battery_voltage,lat,long
2019-12-29 00:04:01+00:00,286.0,284.0,6.61,7.45,12.57,47.59359,-54.27349
2019-12-29 00:14:01+00:00,295.0,294.0,6.44,7.06,12.57,47.59359,-54.27349
2019-12-29 00:24:01+00:00,287.0,261.0,6.0,7.15,12.57,47.59359,-54.27349
2019-12-29 00:34:01+00:00,293.0,292.0,6.84,7.77,12.57,47.59359,-54.27349
2019-12-29 00:44:01+00:00,298.0,296.0,5.82,6.86,12.57,47.59359,-54.27349
2019-12-29 00:54:01+00:00,300.0,310.0,5.71,6.62,12.57,47.59359,-54.27349
2019-12-29 01:04:01+00:00,285.0,280.0,6.13,7.13,12.57,47.59359,-54.27349
2019-12-29 01:14:01+00:00,294.0,289.0,5.46,6.78,12.49,47.59359,-54.27349
2019-12-29 01:24:01+00:00,295.0,302.0,5.77,7.24,12.49,47.59359,-54.27349
2019-12-29 01:34:01+00:00,289.0,291.0,7.71,8.77,12.49,47.59359,-54.27349
2019-12-29 01:44:01+00:00,293.0,296.0,8.08,9.57,12.49,47.59359,-54.27349
2019-12-29 01:54:01+00:00,299.0,301.0,7.55,9.11,12.49,47.59359,-54.27349
2019-12-29 02:04:01+00:00,300.0,307.0,8.77,9.99,12.49,47.59359,-54.27349
2019-12-29 02:14:01+00:00,305.0,306.0,7.23,8.27,12.49,47.59359,-54.27349
2019-12-29 02:24:01+00:00,305.0,311.0,7.93,8.71,12.49,47.59359,-54.27349
2019-12-29 02:34:01+00:00,307.0,309.0,8.28,9.35,12.49,47.59359,-54.27349
2019-12-29 02:44:01+00:00,307.0,306.0,7.71,8.61,12.49,47.59359,-54.27349
2019-12-29 02:54:01+00:00,320.0,318.0,8.09,9.41,12.49,47.59359,-54.27349
2019-12-29 03:04:01+00:00,315.0,315.0,8.63,9.87,12.49,47.59359,-54.27349
2019-12-29 03:14:01+00:00,313.0,309.0,8.09,10.32,12.41,47.59359,-54.27349
2019-12-29 03:24:01+00:00,313.0,312.0,10.39,12.13,12.41,47.59359,-54.27349
2019-12-29 03:34:01+00:00,316.0,321.0,8.57,9.89,12.41,47.59359,-54.27349
2019-12-29 03:44:01+00:00,318.0,320.0,8.1,9.61,12.41,47.59359,-54.27349
2019-12-29 03:54:01+00:00,319.0,322.0,9.42,11.35,12.41,47.59359,-54.27349
2019-12-29 04:04:01+00:00,320.0,323.0,10.06,11.23,12.41,47.59359,-54.27349
2019-12-29 04:14:01+00:00,319.0,316.0,9.54,11.48,12.41,47.59359,-54.27349
2019-12-29 04:24:01+00:00,321.0,322.0,8.69,10.31,12.41,47.59359,-54.27349
2019-12-29 04:34:01+00:00,323.0,326.0,9.43,10.85,12.41,47.59359,-54.27349
2019-12-29 04:44:01+00:00,315.0,317.0,8.75,9.9,12.41,47.59359,-54.27349
2019-12-29 04:54:01+00:00,324.0,323.0,9.57,11.05,12.41,47.59359,-54.27349
2019-12-29 05:04:01+00:00,324.0,325.0,10.22,11.3,12.41,47.59359,-54.27349
2019-12-29 05:14:01+00:00,319.0,320.0,10.43,11.75,12.41,47.59359,-54.27349
2019-12-29 05:24:01+00:00,324.0,325.0,9.04,10.48,12.41,47.59359,-54.27349
2019-12-29 05:34:01+00:00,326.0,332.0,7.81,8.66,12.41,47.59359,-54.27349
2019-12-29 05:44:01+00:00,323.0,320.0,7.99,9.1,12.41,47.59359,-54.27349
2019-12-29 05:54:01+00:00,329.0,341.0,7.2,8.61,12.41,47.59359,-54.27349
2019-12-29 06:04:01+00:00,327.0,327.0,9.09,10.3,12.41,47.59359,-54.27349
2019-12-29 06:14:01+00:00,326.0,329.0,8.89,10.4,12.41,47.59359,-54.27349
2019-12-29 06:24:01+00:00,333.0,329.0,8.95,10.0,12.41,47.59359,-54.27349
2019-12-29 06:34:01+00:00,335.0,339.0,7.88,9.47,12.41,47.59359,-54.27349
2019-12-29 06:44:01+00:00,334.0,334.0,8.28,9.42,12.41,47.59359,-54.27349
2019-12-29 06:54:01+00:00,341.0,341.0,8.52,9.38,12.41,47.59359,-54.27349
2019-12-29 07:04:01+00:00,341.0,338.0,8.32,9.19,12.41,47.59359,-54.27349
2019-12-29 07:14:01+00:00,344.0,343.0,7.91,8.92,12.41,47.59359,-54.27349
2019-12-29 07:24:01+00:00,343.0,344.0,7.39,8.34,12.41,47.59359,-54.27349
2019-12-29 07:34:01+00:00,339.0,335.0,7.66,8.91,12.41,47.59359,-54.27349
2019-12-29 07:44:01+00:00,344.0,346.0,7.74,8.37,12.41,47.59359,-54.27349
2019-12-29 07:54:01+00:00,342.0,339.0,7.38,8.21,12.41,47.59359,-54.27349
2019-12-29 08:04:01+00:00,344.0,341.0,7.31,8.03,12.41,47.59359,-54.27349
2019-12-29 08:14:01+00:00,346.0,344.0,7.64,8.33,12.41,47.59359,-54.27349
2019-12-29 08:24:01+00:00,349.0,349.0,6.38,7.16,12.41,47.59359,-54.27349
2019-12-29 08:34:01+00:00,8.0,10.0,7.26,8.58,12.41,47.59359,-54.27349
2019-12-29 08:44:01+00:00,9.0,9.0,7.33,8.03,12.41,47.59359,-54.27349
2019-12-29 08:54:01+00:00,14.0,15.0,6.47,7.25,12.41,47.59359,-54.27349
2019-12-29 09:04:01+00:00,31.0,33.0,7.68,8.71,12.41,47.59359,-54.27349
2019-12-29 09:14:01+00:00,27.0,31.0,7.65,8.64,12.41,47.59359,-54.27349
2019-12-29 09:24:01+00:00,29.0,35.0,8.17,9.07,12.41,47.59359,-54.27349
2019-12-29 09:34:01+00:00,33.0,36.0,8.67,9.55,12.41,47.59359,-54.27349
2019-12-29 09:44:01+00:00,31.0,24.0,9.34,10.27,12.41,47.59359,-54.27349
2019-12-29 09:54:01+00:00,33.0,37.0,8.82,10.04,12.41,47.59359,-54.27349
2019-12-29 10:04:01+00:00,36.0,36.0,8.99,10.25,12.41,47.59359,-54.27349
2019-12-29 10:14:01+00:00,38.0,41.0,9.28,10.45,12.41,47.59359,-54.27349
2019-12-29 10:24:01+00:00,36.0,36.0,8.93,10.4,12.41,47.59359,-54.27349
2019-12-29 10:34:01+00:00,36.0,37.0,9.93,11.0,12.41,47.59359,-54.27349
2019-12-29 10:44:01+00:00,38.0,43.0,10.24,12.07,12.41,47.59359,-54.27349
2019-12-29 10:54:01+00:00,36.0,36.0,8.73,10.03,12.41,47.59359,-54.27349
2019-12-29 11:04:01+00:00,34.0,31.0,10.42,11.39,12.41,47.59359,-54.27349
2019-12-29 11:14:01+00:00,34.0,35.0,10.56,11.67,12.33,47.59359,-54.27349
2019-12-29 11:24:01+00:00,39.0,42.0,11.25,12.46,12.33,47.59359,-54.27349
2019-12-29 11:34:01+00:00,38.0,37.0,10.09,11.5,12.33,47.59359,-54.27349
2019-12-29 11:44:01+00:00,41.0,43.0,10.14,12.3,12.33,47.59359,-54.27349
2019-12-29 11:54:01+00:00,39.0,41.0,11.13,12.58,12.33,47.59359,-54.27349
2019-12-29 12:04:01+00:00,37.0,33.0,10.72,12.0,12.33,47.59359,-54.27349
2019-12-29 12:14:01+00:00,39.0,40.0,10.93,12.06,12.41,47.59359,-54.27349
2019-12-29 12:24:01+00:00,34.0,29.0,10.07,11.23,12.41,47.59359,-54.27349
2019-12-29 12:34:01+00:00,39.0,35.0,11.99,15.89,12.41,47.59359,-54.27349
2019-12-29 12:44:01+00:00,36.0,33.0,11.07,13.53,12.41,47.59359,-54.27349
2019-12-29 12:54:01+00:00,34.0,38.0,10.48,11.56,12.41,47.59359,-54.27349
2019-12-29 13:04:01+00:00,37.0,37.0,9.76,11.12,12.41,47.59359,-54.27349
2019-12-29 13:14:01+00:00,27.0,31.0,9.34,10.8,13.13,47.59359,-54.27349
2019-12-29 13:24:01+00:00,35.0,38.0,10.94,12.23,13.13,47.59359,-54.27349
2019-12-29 13:34:01+00:00,28.0,27.0,8.87,10.73,13.13,47.59359,-54.27349
2019-12-29 13:44:01+00:00,27.0,25.0,10.05,12.05,13.13,47.59359,-54.27349
2019-12-29 13:54:01+00:00,31.0,29.0,10.01,11.1,13.13,47.59359,-54.27349
2019-12-29 14:04:01+00:00,22.0,31.0,10.25,12.77,13.13,47.59359,-54.27349
2019-12-29 14:14:01+00:00,27.0,34.0,10.17,11.94,13.44,47.59359,-54.27349
2019-12-29 14:24:01+00:00,26.0,30.0,10.06,11.51,13.44,47.59359,-54.27349
2019-12-29 14:34:01+00:00,13.0,7.0,9.88,12.09,13.44,47.59359,-54.27349
2019-12-29 14:44:01+00:00,22.0,17.0,10.55,12.84,13.44,47.59359,-54.27349
2019-12-29 14:54:01+00:00,30.0,29.0,11.56,13.99,13.44,47.59359,-54.27349
2019-12-29 15:04:01+00:00,27.0,32.0,11.32,13.88,13.44,47.59359,-54.27349
2019-12-29 15:14:01+00:00,33.0,30.0,11.31,13.22,13.84,47.59359,-54.27349
2019-12-29 15:24:01+00:00,28.0,34.0,11.42,13.23,13.84,47.59359,-54.27349
2019-12-29 15:34:01+00:00,23.0,29.0,8.7,10.21,13.84,47.59359,-54.27349
2019-12-29 15:44:01+00:00,21.0,23.0,10.02,12.64,13.84,47.59359,-54.27349
2019-12-29 15:54:01+00:00,24.0,19.0,11.69,14.03,13.84,47.59359,-54.27349
2019-12-29 16:04:01+00:00,21.0,14.0,9.67,11.47,13.84,47.59359,-54.27349
2019-12-29 16:14:01+00:00,12.0,9.0,9.73,12.74,13.37,47.59359,-54.27349
2019-12-29 16:24:01+00:00,14.0,18.0,9.94,11.67,13.37,47.59359,-54.27349
2019-12-29 16:34:01+00:00,14.0,18.0,8.99,10.08,13.37,47.59359,-54.27349
2019-12-29 16:44:01+00:00,10.0,13.0,11.11,12.48,13.37,47.59359,-54.27349
2019-12-29 16:54:01+00:00,31.0,37.0,11.33,14.81,13.37,47.59359,-54.27349
2019-12-29 17:04:01+00:00,11.0,20.0,9.58,10.79,13.37,47.59359,-54.27349
2019-12-29 17:14:01+00:00,9.0,15.0,9.84,10.77,13.53,47.59359,-54.27349
2019-12-29 17:24:01+00:00,7.0,6.0,10.57,12.01,13.53,47.59359,-54.27349
2019-12-29 17:34:01+00:00,11.0,8.0,12.05,14.04,13.53,47.59359,-54.27349
2019-12-29 17:44:01+00:00,28.0,31.0,13.0,14.8,13.53,47.59359,-54.27349
2019-12-29 17:54:01+00:00,32.0,34.0,11.58,14.2,13.53,47.59359,-54.27349
2019-12-29 18:04:01+00:00,29.0,28.0,12.08,14.11,13.53,47.59359,-54.27349
2019-12-29 18:14:01+00:00,29.0,33.0,10.0,12.33,13.53,47.59359,-54.27349
2019-12-29 18:24:01+00:00,20.0,19.0,10.74,12.3,13.53,47.59359,-54.27349
2019-12-29 18:34:01+00:00,15.0,14.0,12.32,14.45,13.53,47.59359,-54.27349
2019-12-29 18:44:01+00:00,12.0,21.0,13.36,15.87,13.53,47.59359,-54.27349
2019-12-29 18:54:01+00:00,11.0,7.0,13.52,15.65,13.53,47.59359,-54.27349
2019-12-29 19:04:01+00:00,18.0,19.0,13.35,15.6,13.53,47.59359,-54.27349
2019-12-29 19:14:01+00:00,13.0,12.0,11.42,12.98,13.29,47.59359,-54.27349
2019-12-29 19:24:01+00:00,6.0,2.0,14.74,16.24,13.29,47.59359,-54.27349
2019-12-29 19:34:01+00:00,2.0,0.0,13.17,15.89,13.29,47.59359,-54.27349
2019-12-29 19:44:01+00:00,353.0,358.0,10.5,13.33,13.29,47.59359,-54.27349
2019-12-29 19:54:01+00:00,1.0,3.0,11.99,13.78,13.29,47.59359,-54.27349
2019-12-29 20:04:01+00:00,2.0,3.0,11.49,13.37,13.29,47.59359,-54.27349
2019-12-29 20:14:01+00:00,4.0,1.0,13.02,15.02,12.81,47.59359,-54.27349
2019-12-29 20:24:01+00:00,0.0,3.0,9.75,11.36,12.81,47.59359,-54.27349
2019-12-29 20:34:01+00:00,2.0,4.0,11.09,12.99,12.81,47.59359,-54.27349
2019-12-29 20:44:01+00:00,358.0,359.0,9.68,11.34,12.81,47.59359,-54.27349
2019-12-29 20:54:01+00:00,354.0,350.0,10.79,12.56,12.81,47.59359,-54.27349
2019-12-29 21:04:01+00:00,352.0,1.0,8.76,10.42,12.81,47.59359,-54.27349
2019-12-29 21:14:01+00:00,345.0,338.0,9.58,10.78,12.65,47.59359,-54.27349
2019-12-29 21:24:01+00:00,348.0,346.0,9.52,11.08,12.65,47.59359,-54.27349
2019-12-29 21:34:01+00:00,347.0,350.0,9.4,12.0,12.65,47.59359,-54.27349
2019-12-29 21:44:01+00:00,344.0,341.0,11.22,13.35,12.65,47.59359,-54.27349
2019-12-29 21:54:01+00:00,337.0,340.0,11.49,13.46,12.65,47.59359,-54.27349
2019-12-29 22:04:01+00:00,346.0,349.0,11.68,13.6,12.65,47.59359,-54.27349
2019-12-29 22:14:01+00:00,346.0,350.0,10.31,12.76,12.65,47.59359,-54.27349
2019-12-29 22:24:01+00:00,339.0,343.0,10.83,11.61,12.65,47.59359,-54.27349
2019-12-29 22:34:01+00:00,343.0,342.0,9.48,11.33,12.65,47.59359,-54.27349
2019-12-29 22:44:01+00:00,348.0,351.0,10.11,12.13,12.65,47.59359,-54.27349
2019-12-29 22:54:01+00:00,349.0,356.0,9.48,10.84,12.65,47.59359,-54.27349
2019-12-29 23:04:01+00:00,349.0,352.0,8.72,10.1,12.65,47.59359,-54.27349
2019-12-29 23:14:01+00:00,346.0,348.0,8.81,9.83,12.57,47.59359,-54.27349
2019-12-29 23:24:01+00:00,340.0,336.0,8.94,10.27,12.57,47.59359,-54.27349
2019-12-29 23:34:01+00:00,344.0,340.0,8.76,10.48,12.57,47.59359,-54.27349
2019-12-29 23:44:01+00:00,346.0,348.0,9.02,10.18,12.57,47.59359,-54.27349
2019-12-29 23:54:01+00:00,352.0,357.0,8.5,9.63,12.57,47.59359,-54.27349
